EW9394 Weather Reports


time (UTC)temp
F
wind
direction
speed
knots
gust
knots
rain 1hr
in
rain 24hr
in
rain mn
in
humidity
%
barometer
mb
20260903044717 81 61 0.9 0.9 0.00 0.09 0.09 77 1014.9
20260903044212 81 62 0.9 0.9 0.00 0.09 0.09 77 1014.9
20260903043710 81 348 1.7 1.7 0.00 0.09 0.09 76 1015.1
20260903043209 82 54 0.9 0.9 0.00 0.09 0.09 76 1014.7
20260903042708 82 105 1.7 1.7 0.00 0.09 0.09 75 1014.6
20260903042203 82 79 0.9 0.9 0.00 0.09 0.09 75 1014.7
20260903041700 82 78 0.9 2.6 0.00 0.09 0.09 74 1014.8
20260903041155 82 56 1.7 2.6 0.00 0.09 0.09 74 1014.7
20260903040654 82 82 1.7 2.6 0.00 0.09 0.09 74 1014.9
20260903040150 83 52 1.7 1.7 0.00 0.09 0.09 74 1015.0
20260903035646 83 78 0.0 0.9 0.00 0.09 0.09 73 1014.9
20260903035141 83 44 0.9 1.7 0.00 0.09 0.09 73 1014.9
20260903034636 83 139 0.9 1.7 0.00 0.09 0.09 73 1014.7
20260903034131 83 112 0.9 1.7 0.00 0.09 0.09 73 1014.6
20260903033627 83 83 0.0 0.9 0.00 0.09 0.09 72 1014.9
20260903033126 84 110 0.9 1.7 0.00 0.09 0.09 72 1014.6
20260903032622 84 67 0.0 0.9 0.00 0.09 0.09 71 1014.6
20260903032117 84 166 0.0 0.0 0.00 0.09 0.09 71 1014.7
20260903031612 84 144 0.9 1.7 0.00 0.09 0.09 70 1014.6
20260903031107 84 185 0.9 0.9 0.00 0.09 0.09 70 1014.7
20260903030603 84 114 2.6 2.6 0.00 0.09 0.09 69 1015.0
20260903030058 84 192 2.6 6.1 0.00 0.09 0.09 69 1014.7
20260903025553 85 155 1.7 1.7 0.00 0.09 0.09 69 1014.6
20260903025049 85 150 0.9 0.9 0.00 0.09 0.09 68 1014.6
20260903024549 85 135 3.5 5.2 0.00 0.09 0.09 68 1014.4
20260903024043 85 75 0.9 1.7 0.00 0.09 0.09 67 1014.5
20260903023539 86 125 2.6 2.6 0.00 0.09 0.09 66 1014.5
20260903023034 86 125 4.3 5.2 0.00 0.09 0.09 66 1014.5
20260903022533 86 120 0.9 1.7 0.00 0.09 0.09 66 1014.5
20260903022032 86 55 1.7 2.6 0.00 0.09 0.09 65 1014.1
20260903021527 86 134 4.3 5.2 0.00 0.09 0.09 65 1014.1
20260903021022 86 91 3.5 4.3 0.00 0.09 0.09 64 1014.1
20260903020518 87 117 4.3 5.2 0.00 0.09 0.09 64 1013.8
20260903020017 87 95 5.2 6.1 0.00 0.09 0.09 63 1013.9
20260903015513 88 59 3.5 4.3 0.00 0.09 0.09 63 1013.8
20260903015008 88 157 1.7 1.7 0.00 0.09 0.09 62 1013.8
20260903014502 88 112 2.6 2.6 0.00 0.09 0.09 62 1013.5
20260903013957 89 187 0.9 1.7 0.00 0.09 0.09 61 1013.7
20260903013457 89 182 0.0 0.0 0.00 0.09 0.09 61 1013.3
20260903012956 89 134 2.6 4.3 0.00 0.09 0.09 59 1013.3
20260903012455 89 83 0.0 0.9 0.00 0.09 0.09 60 1013.1
20260903011954 89 175 0.9 0.9 0.00 0.09 0.09 59 1013.1
20260903011449 89 184 0.0 0.0 0.00 0.09 0.09 59 1013.0
20260903010944 89 109 0.9 0.9 0.00 0.09 0.09 59 1012.9
20260903010439 89 144 0.0 0.9 0.00 0.09 0.09 59 1013.0
20260903005937 89 100 0.0 0.0 0.00 0.09 0.09 59 1013.0
20260903005433 89 76 0.9 0.9 0.00 0.09 0.09 60 1013.1
20260903004930 89 165 0.0 0.9 0.00 0.09 0.09 60 1013.1
20260903004430 89 138 0.0 0.0 0.00 0.09 0.09 61 1013.0
20260903003925 89 183 0.9 0.9 0.00 0.09 0.09 62 1013.0
20260903003425 89 157 0.0 0.0 0.00 0.09 0.09 64 1013.0
20260903002920 89 87 0.9 0.9 0.00 0.09 0.09 64 1013.0
20260903002415 89 100 0.9 1.7 0.00 0.09 0.09 66 1012.9
20260903001915 89 183 0.0 0.0 0.00 0.09 0.09 66 1012.7
20260903001410 89 182 0.0 0.9 0.00 0.09 0.09 66 1012.8
20260903000909 89 134 0.9 0.9 0.00 0.09 0.09 65 1013.0
20260903000404 89 47 0.9 1.7 0.00 0.09 0.09 66 1012.8
20260902235902 88 70 0.9 0.9 0.00 0.09 0.09 68 1012.7
20260902235358 85 100 0.0 0.0 0.00 0.09 0.09 76 1012.9
20260902234852 84 199 0.0 0.0 0.00 0.09 0.09 82 1012.8
20260902234352 83 199 0.0 0.0 0.00 0.09 0.09 83 1012.7
20260902233850 81 175 0.0 0.0 0.00 0.09 0.09 89 1012.7
20260902233345 80 183 0.0 0.0 0.00 0.09 0.09 93 1012.6
20260902232844 79 152 0.0 0.0 0.00 0.09 0.09 94 1012.8
20260902232339 80 202 0.0 0.0 0.00 0.09 0.09 94 1012.7
20260902231838 80 201 0.0 0.0 0.00 0.09 0.09 94 1012.8
20260902231333 80 200 0.0 0.0 0.00 0.09 0.09 93 1012.7
20260902230828 79 196 0.0 0.0 0.00 0.09 0.09 91 1012.7
20260902230328 79 187 0.0 0.0 0.00 0.09 0.09 89 1012.8
20260902225822 80 216 5.2 7.8 0.00 0.09 0.09 87 1012.8
20260902225317 80 181 2.6 2.6 0.19 0.09 0.09 87 1013.1
20260902224816 82 203 1.7 1.7 0.54 0.09 0.09 84 1012.8
20260902224311 85 171 3.5 4.3 0.35 0.06 0.06 76 1012.7
20260902223808 93 36 6.1 8.7 0.00 0.00 0.00 58 1012.7
20260902223307 100 90 4.3 7.0 0.00 0.00 0.00 46 1012.4
20260902222801 100 69 0.0 0.9 0.00 0.00 0.00 43 1012.3
20260902222300 100 164 2.6 2.6 0.00 0.00 0.00 42 1012.2
20260902221755 100 78 0.9 0.9 0.00 0.00 0.00 42 1012.2
20260902221254 99 155 0.9 0.9 0.00 0.00 0.00 43 1012.6
20260902220750 98 224 0.9 0.9 0.00 0.00 0.00 44 1012.4
20260902220249 98 134 0.9 0.9 0.00 0.00 0.00 45 1012.6
20260902215745 99 65 0.9 1.7 0.00 0.00 0.00 43 1012.5
20260902215240 100 245 0.0 0.9 0.00 0.00 0.00 43 1012.6
20260902214736 101 125 0.9 0.9 0.00 0.00 0.00 42 1012.5
20260902214235 101 197 0.9 0.9 0.00 0.00 0.00 41 1012.5
20260902213731 100 204 0.0 0.0 0.00 0.00 0.00 42 1012.5
20260902213230 99 206 0.0 0.9 0.00 0.00 0.00 42 1012.7
20260902212730 100 59 2.6 4.3 0.00 0.00 0.00 42 1012.8
20260902212226 101 34 4.3 7.8 0.00 0.00 0.00 41 1012.7
20260902211722 100 119 1.7 1.7 0.00 0.00 0.00 42 1012.9
20260902211218 101 62 0.9 0.9 0.00 0.00 0.00 42 1012.9
20260902210712 100 133 1.7 1.7 0.00 0.00 0.00 42 1012.9
20260902210207 101 228 1.7 2.6 0.00 0.00 0.00 42 1012.9
20260902205705 100 309 1.7 1.7 0.00 0.00 0.00 42 1012.7
20260902205201 100 7 4.3 6.1 0.00 0.00 0.00 42 1013.2
20260902204656 100 114 0.9 1.7 0.00 0.00 0.00 43 1013.2
20260902204150 100 339 2.6 2.6 0.00 0.00 0.00 43 1013.4
20260902203645 99 136 0.9 1.7 0.00 0.00 0.00 43 1013.5
20260902203140 100 209 2.6 7.8 0.00 0.00 0.00 43 1013.4
20260902202636 100 290 4.3 5.2 0.00 0.00 0.00 43 1013.4
20260902202132 100 208 1.7 2.6 0.00 0.00 0.00 42 1013.6
20260902201628 100 114 4.3 7.0 0.00 0.00 0.00 43 1013.8
20260902201127 100 175 2.6 2.6 0.00 0.00 0.00 43 1013.6
20260902200622 100 109 3.5 7.0 0.00 0.00 0.00 43 1014.0
20260902200118 99 222 0.9 1.7 0.00 0.00 0.00 43 1013.9
20260902195613 99 317 0.9 4.3 0.00 0.00 0.00 45 1014.0
20260902195113 98 233 1.7 2.6 0.00 0.00 0.00 45 1014.1
20260902194612 99 5 4.3 7.0 0.00 0.00 0.00 44 1014.4
20260902194107 99 318 2.6 2.6 0.00 0.00 0.00 44 1014.3
20260902193603 99 0 4.3 5.2 0.00 0.00 0.00 43 1014.4
20260902193103 99 218 0.9 1.7 0.00 0.00 0.00 44 1014.7
20260902192601 99 304 6.1 7.8 0.00 0.00 0.00 45 1014.7
20260902192100 100 67 0.9 0.9 0.00 0.00 0.00 45 1014.7
20260902191555 99 222 1.7 2.6 0.00 0.00 0.00 44 1014.8
20260902191050 99 72 0.9 1.7 0.00 0.00 0.00 44 1015.0
20260902190545 98 204 0.9 0.9 0.00 0.00 0.00 45 1014.9
20260902190041 98 120 0.9 0.9 0.00 0.00 0.00 45 1015.1
20260902185537 98 284 2.6 2.6 0.00 0.00 0.00 46 1015.2
20260902185032 98 64 0.9 2.6 0.00 0.00 0.00 46 1015.2
20260902184527 98 182 0.0 0.0 0.00 0.00 0.00 46 1015.3
20260902184022 99 161 0.0 0.9 0.00 0.00 0.00 44 1015.3
20260902183519 98 47 0.9 1.7 0.00 0.00 0.00 46 1015.4
20260902183015 97 51 0.9 0.9 0.00 0.00 0.00 46 1015.5
20260902182511 96 172 1.7 2.6 0.00 0.00 0.00 49 1015.5
20260902182006 97 51 1.7 2.6 0.00 0.00 0.00 49 1015.8
20260902181502 96 70 0.9 0.9 0.00 0.00 0.00 50 1015.7
20260902180956 95 112 0.0 0.0 0.00 0.00 0.00 50 1016.0
20260902180457 96 127 0.9 1.7 0.00 0.00 0.00 50 1016.2
20260902175952 95 74 0.0 1.7 0.00 0.00 0.00 51 1016.4
20260902175447 96 154 0.9 1.7 0.00 0.00 0.00 51 1016.5
20260902174943 95 214 0.9 1.7 0.00 0.00 0.00 52 1016.6
20260902174439 94 161 0.9 0.9 0.00 0.00 0.00 53 1016.6
20260902173935 95 220 0.0 0.9 0.00 0.00 0.00 53 1016.5
20260902173434 95 51 1.7 2.6 0.00 0.00 0.00 53 1016.7
20260902172929 94 79 0.0 0.9 0.00 0.00 0.00 55 1016.6
20260902172428 95 124 0.9 0.9 0.00 0.00 0.00 53 1016.9
20260902171924 93 218 0.0 0.9 0.00 0.00 0.00 56 1017.1
20260902171419 93 197 0.0 0.0 0.00 0.00 0.00 55 1017.0
20260902170915 93 200 0.0 0.9 0.00 0.00 0.00 57 1016.9
20260902170410 92 249 0.9 0.9 0.00 0.00 0.00 58 1017.2
20260902165906 93 199 0.0 0.0 0.00 0.00 0.00 58 1017.4
20260902165405 93 78 1.7 2.6 0.00 0.00 0.00 58 1017.3
20260902164900 93 160 1.7 1.7 0.00 0.00 0.00 57 1017.4
20260902164355 92 142 0.0 0.0 0.00 0.00 0.00 59 1017.3
20260902163854 92 173 0.9 0.9 0.00 0.00 0.00 59 1017.8
20260902163349 92 169 2.6 4.3 0.00 0.00 0.00 59 1017.6
20260902162847 92 96 0.9 1.7 0.00 0.00 0.00 59 1017.5
20260902162342 91 146 0.0 0.9 0.00 0.00 0.00 62 1017.5
20260902161837 91 90 0.9 0.9 0.00 0.00 0.00 61 1017.5
20260902161332 91 151 0.0 0.9 0.00 0.00 0.00 62 1017.7
20260902160828 89 205 0.0 0.9 0.00 0.00 0.00 65 1017.6
20260902160323 90 213 0.0 0.0 0.00 0.00 0.00 64 1017.6
20260902155821 90 159 1.7 1.7 0.00 0.00 0.00 63 1017.5
20260902155320 90 217 0.9 1.7 0.00 0.00 0.00 62 1017.7
20260902154816 89 120 0.0 0.0 0.00 0.00 0.00 64 1017.8
20260902154311 90 138 0.9 1.7 0.00 0.00 0.00 64 1017.8
20260902153810 89 162 0.0 0.9 0.00 0.00 0.00 65 1017.7
20260902153304 89 160 0.0 0.0 0.00 0.00 0.00 66 1017.7
20260902152800 89 199 0.9 0.9 0.00 0.00 0.00 64 1017.6
20260902152256 89 169 0.9 1.7 0.00 0.00 0.00 65 1017.4
20260902151750 89 128 0.0 0.0 0.00 0.00 0.00 67 1017.4
20260902151245 89 165 0.0 0.0 0.00 0.00 0.00 67 1017.5
20260902150740 89 159 0.9 1.7 0.00 0.00 0.00 67 1017.6
20260902150237 88 182 0.9 0.9 0.00 0.00 0.00 67 1017.4
20260902145735 87 97 0.0 0.9 0.00 0.00 0.00 69 1017.3
20260902145231 87 157 1.7 1.7 0.00 0.00 0.00 70 1017.4
20260902144726 87 203 0.0 0.0 0.00 0.00 0.00 70 1017.5
20260902144222 86 122 0.9 0.9 0.00 0.00 0.00 71 1017.3
20260902143717 85 173 0.9 0.9 0.00 0.00 0.00 72 1017.4
20260902143212 85 192 0.0 0.9 0.00 0.00 0.00 72 1017.3
20260902142708 86 196 0.0 0.0 0.00 0.00 0.00 73 1017.6
20260902142204 86 162 0.0 0.9 0.00 0.00 0.00 72 1017.4
20260902141704 85 198 0.9 0.9 0.00 0.00 0.00 73 1017.5
20260902141159 85 182 0.9 1.7 0.00 0.00 0.00 73 1017.3
20260902140654 84 195 0.9 0.9 0.00 0.00 0.00 74 1017.5
20260902140149 84 137 0.0 0.0 0.00 0.00 0.00 73 1017.3
20260902135648 84 175 1.7 1.7 0.00 0.00 0.00 73 1017.2
20260902135143 83 173 0.0 0.9 0.00 0.00 0.00 74 1017.4
20260902134639 83 157 0.0 0.0 0.00 0.00 0.00 76 1017.4
20260902134138 82 176 0.0 0.0 0.00 0.00 0.00 77 1017.4
20260902133633 81 198 0.0 0.0 0.00 0.00 0.00 78 1017.3
20260902133128 81 55 0.9 0.9 0.00 0.00 0.00 78 1016.9
20260902132623 81 190 0.0 0.0 0.00 0.00 0.00 79 1017.4
20260902132118 81 197 0.0 0.0 0.00 0.00 0.00 79 1017.4
20260902131614 81 169 0.9 0.9 0.00 0.00 0.00 79 1017.2
20260902131109 81 199 2.6 2.6 0.00 0.00 0.00 79 1017.2
20260902130605 80 202 0.9 0.9 0.00 0.00 0.00 79 1017.3
20260902125556 80 148 1.7 1.7 0.00 0.00 0.00 79 1017.2
20260902125051 80 193 0.0 0.0 0.00 0.00 0.00 79 1017.1
20260902124548 80 196 0.0 0.0 0.00 0.00 0.00 79 1016.8
20260902124048 79 179 0.0 0.0 0.00 0.00 0.00 80 1017.0
20260902123544 79 186 0.0 0.9 0.00 0.00 0.00 80 1016.7
20260902123043 79 169 0.0 0.0 0.00 0.00 0.00 80 1016.7
20260902122538 79 178 0.0 0.0 0.00 0.00 0.00 80 1016.8
20260902122034 79 159 0.0 0.0 0.00 0.00 0.00 81 1016.9
20260902121534 78 192 0.0 0.0 0.00 0.00 0.00 82 1016.8
20260902121029 78 189 0.0 0.0 0.00 0.00 0.00 82 1016.9
20260902120525 78 199 0.0 0.0 0.00 0.00 0.00 82 1016.9
20260902120021 78 202 0.0 0.0 0.00 0.00 0.00 82 1016.9
20260902115516 78 203 0.0 0.0 0.00 0.00 0.00 82 1016.8
20260902115013 78 204 0.0 0.0 0.00 0.00 0.00 81 1016.7
20260902114508 78 184 0.0 0.0 0.00 0.00 0.00 82 1016.9
20260902114008 78 200 0.0 0.0 0.00 0.00 0.00 81 1016.9
20260902113504 78 203 0.0 0.0 0.00 0.00 0.00 81 1017.0
20260902113003 78 204 0.0 0.0 0.00 0.00 0.00 80 1016.8
20260902112459 78 204 0.0 0.0 0.00 0.00 0.00 80 1016.8
20260902111955 78 205 0.0 0.0 0.00 0.00 0.00 80 1016.9
20260902111451 79 205 0.0 0.0 0.00 0.00 0.00 79 1016.9
20260902110947 79 204 0.0 0.0 0.00 0.00 0.00 78 1016.8
20260902110443 79 201 0.0 0.0 0.00 0.00 0.00 78 1016.8
20260902105937 79 198 0.0 0.0 0.00 0.00 0.00 78 1016.8
20260902105432 79 204 0.0 0.0 0.00 0.00 0.00 79 1016.9
20260902104927 79 205 0.0 0.0 0.00 0.00 0.00 79 1016.8
20260902104423 79 202 0.0 0.0 0.00 0.00 0.00 79 1016.7
20260902103922 79 202 0.0 0.0 0.00 0.00 0.00 79 1016.7
20260902103418 79 205 0.0 0.0 0.00 0.00 0.00 79 1016.6
20260902102913 80 205 0.0 0.0 0.00 0.00 0.00 78 1016.6
20260902102410 80 199 0.0 0.0 0.00 0.00 0.00 77 1016.7
20260902101906 80 195 0.0 0.0 0.00 0.00 0.00 77 1016.8
20260902101401 80 200 0.0 0.0 0.00 0.00 0.00 77 1016.8
20260902100900 80 202 0.0 0.0 0.00 0.00 0.00 77 1016.8
20260902100359 80 201 0.0 0.0 0.00 0.00 0.00 77 1016.8
20260902095854 80 200 0.0 0.0 0.00 0.00 0.00 76 1016.9
20260902095349 80 200 0.0 0.0 0.00 0.00 0.00 75 1016.9
20260902094849 80 198 0.0 0.0 0.00 0.00 0.00 75 1016.8
20260902094345 80 197 0.0 0.0 0.00 0.00 0.00 75 1016.8
20260902093844 81 200 0.0 0.0 0.00 0.00 0.00 75 1016.6
20260902093340 81 194 0.0 0.0 0.00 0.00 0.00 74 1016.8
20260902092838 81 187 0.0 0.0 0.00 0.00 0.00 74 1016.8
20260902092334 81 202 0.0 0.0 0.00 0.00 0.00 74 1016.5
20260902091829 81 199 0.0 0.0 0.00 0.00 0.00 73 1016.7
20260902091324 81 198 0.0 0.0 0.00 0.00 0.00 73 1016.6
20260902090821 81 200 0.0 0.0 0.00 0.00 0.00 72 1016.2
20260902090320 82 199 0.0 0.0 0.00 0.00 0.00 72 1016.6
20260902085813 82 196 0.0 0.0 0.00 0.00 0.00 71 1016.5
20260902085309 82 199 0.0 0.0 0.00 0.00 0.00 71 1016.5
20260902084804 82 192 0.9 1.7 0.00 0.00 0.00 71 1016.4
20260902084301 82 198 0.0 0.0 0.00 0.00 0.00 71 1016.5
20260902083755 82 196 0.0 0.0 0.00 0.00 0.00 71 1016.3
20260902083250 82 203 0.0 0.9 0.00 0.00 0.00 70 1016.4
20260902082745 82 199 0.0 0.9 0.00 0.00 0.00 70 1016.6
20260902082242 82 192 0.0 0.9 0.00 0.00 0.00 70 1016.6
20260902081738 82 202 0.0 0.0 0.00 0.00 0.00 70 1016.3
20260902081233 83 180 0.0 0.9 0.00 0.00 0.00 70 1016.4
20260902080728 83 189 0.0 0.0 0.00 0.00 0.00 70 1016.4
20260902080225 83 190 0.0 0.0 0.00 0.00 0.00 70 1016.6
20260902075724 83 196 0.0 0.9 0.00 0.00 0.00 70 1016.4
20260902075220 83 184 2.6 4.3 0.00 0.00 0.00 70 1016.4
20260902074719 83 176 0.9 0.9 0.00 0.00 0.00 70 1016.4
20260902074216 83 184 0.9 0.9 0.00 0.00 0.00 70 1016.6
20260902073711 83 177 0.9 1.7 0.00 0.00 0.00 70 1016.4
20260902073207 84 186 0.9 0.9 0.00 0.00 0.00 69 1016.3
20260902072702 84 195 0.9 0.9 0.00 0.00 0.00 70 1016.2
20260902072158 84 178 0.9 0.9 0.00 0.00 0.00 69 1016.4
20260902071654 84 152 2.6 2.6 0.00 0.00 0.00 69 1016.5
20260902071149 84 193 0.9 1.7 0.00 0.00 0.00 69 1016.5
20260902070646 84 198 1.7 1.7 0.00 0.00 0.00 70 1016.4
20260902070145 84 175 0.9 1.7 0.00 0.00 0.00 70 1016.4
20260902065644 84 170 0.0 0.0 0.00 0.00 0.00 70 1016.5
20260902065140 84 204 0.9 0.9 0.00 0.00 0.00 70 1016.5
20260902064635 84 161 2.6 2.6 0.00 0.00 0.00 70 1016.4
20260902064130 84 159 3.5 5.2 0.00 0.00 0.00 70 1016.5
20260902063626 84 196 2.6 2.6 0.00 0.00 0.00 70 1016.4
20260902063120 84 187 2.6 5.2 0.00 0.00 0.00 70 1016.5
20260902062619 85 206 1.7 2.6 0.00 0.00 0.00 69 1016.5
20260902062115 85 186 3.5 6.1 0.00 0.00 0.00 69 1016.4
20260902061614 85 150 1.7 1.7 0.00 0.00 0.00 69 1016.5
20260902061110 85 200 2.6 2.6 0.00 0.00 0.00 68 1016.6
20260902060607 85 175 1.7 2.6 0.00 0.00 0.00 68 1016.5
20260902055558 85 185 0.9 1.7 0.00 0.00 0.00 68 1016.3
20260902055054 85 155 2.6 2.6 0.00 0.00 0.00 68 1016.4
20260902054548 85 216 2.6 2.6 0.00 0.00 0.00 68 1016.5
20260902054044 86 204 0.9 2.6 0.00 0.00 0.00 67 1016.4
20260902053539 86 218 2.6 2.6 0.00 0.00 0.00 67 1016.5
20260902053038 86 179 0.0 0.9 0.00 0.00 0.00 67 1016.4
20260902052533 86 205 2.6 2.6 0.00 0.00 0.00 66 1016.5
20260902052029 86 195 0.9 0.9 0.00 0.00 0.00 66 1016.4
20260902051529 86 204 1.7 2.6 0.00 0.00 0.00 66 1016.6
20260902051027 86 200 1.7 2.6 0.00 0.00 0.00 66 1016.3
20260902050522 87 159 0.9 1.7 0.00 0.00 0.00 65 1016.3
20260902050018 87 203 1.7 1.7 0.00 0.00 0.00 65 1016.3
20260902045513 87 179 2.6 4.3 0.00 0.00 0.00 65 1016.3
20260902045010 87 189 2.6 4.3 0.00 0.00 0.00 64 1016.5